Tracking 27419 objects as of 9-Jun-2023
HD Live streaming from Space Station
objects crossing your sky now

SL-6 R/B(2)

Track SL-6 R/B(2) now!


NORAD ID: 7629
Int'l Code: 1975-007D
Perigee: 5,161.3 km
Apogee: 35,166.3 km
Inclination: 68.9 °
Period: 716.9 minutes
Semi major axis: 26534 km
RCS: 7.0447 m2 (large)
Launch date: January 30, 1975
Source: Commonwealth of Independent States (former USSR) (CIS)
Launch site: PLESETSK MISSILE AND SPACE COMPLEX (PKMTR)

Note: This is a ROCKET BODY
Your satellite tracking list
Your tracking list is empty




NASA's NSSDC Master Catalog

Two Line Element Set (TLE):
1 07629U 75007D   23154.06475346 -.00000184  00000-0  00000-0 0  9997
2 07629  68.9265 288.4449 5653910 324.4840 275.0923  2.00853508215697
Source of the keplerian elements: AFSPC